[[{"header":{"parameterUnit":"m.s-1","parameterCategory":1,"la1":30.2991,"la2":30.254,"lo1":-89.0895,"lo2":-89.0444,"dy":0.0017,"dx":0.0017,"nx":28,"ny":28,"refTime":"2025-12-29T03:00:00:Z","depth":0,"parameterNumber":2,"parameterNumberName":"U-component_of_WINDS"},"data":[0,0,0,0,0,0,0,0,0,0,0,0,0,0,0,0,0,0,0,0,0,0,0,0,0,0,0,0,0,0,0,0,0,0,0,0,0,0,0,0,0,0,0,0,0,0,0,0,0,0,0,0,0,0,0,0,0,0,5.1661,5.1663,0,5.1883,5.1886,5.1888,5.1865,5.1862,5.1858,5.1855,5.2084,5.2093,5.2102,0,0,0,0,0,0,0,0,0,0,0,0,0,5.1213,5.1221,5.166,5.1663,5.1666,5.1883,5.1886,5.1889,5.1866,5.1862,5.1857,5.1853,5.2081,5.2092,5.2103,0,0,0,0,0,0,0,0,0,0,0,0,0,5.1419,5.1224,5.166,5.1681,5.1685,5.1882,5.1886,5.189,5.1867,5.1862,5.1856,5.1851,5.2077,5.2091,5.2105,5.2296,0,0,5.2148,5.2154,0,0,0,0,0,0,0,0,5.1407,5.1435,5.1675,5.1679,5.1684,5.1841,5.1812,5.2026,5.1868,5.1798,5.1855,5.1849,5.2007,5.2027,5.208,5.2307,5.2317,5.2149,5.2157,5.2163,5.2167,0,0,0,0,0,0,0,5.1393,5.1426,5.1749,5.1678,5.1684,5.1678,5.1702,5.1853,5.1929,5.1803,5.1802,5.1829,5.2009,5.2067,5.2085,5.232,5.2148,5.2161,5.217,5.2175,5.2713,5.2718,0,0,0,0,0,0,5.1374,5.1414,5.1742,5.1755,5.153,5.1691,5.1717,5.1796,5.1928,5.1943,5.1833,5.1827,5.2045,5.2069,5.2093,5.2325,5.2163,5.2176,5.2184,5.2707,5.2714,5.272,0,0,0,0,0,0,5.1364,5.1403,5.1733,5.1584,5.1626,5.1704,5.1793,5.1803,5.1861,5.195,5.1964,5.1878,5.2042,5.2074,5.2245,5.2332,5.2183,5.2195,5.27,5.2709,5.2717,5.279,0,0,0,0,0,0,5.1352,5.14,5.1474,5.1586,5.1634,5.1882,5.1799,5.1812,5.1885,5.1879,5.1996,5.201,5.204,5.2225,5.2259,5.2349,5.2206,5.2692,5.2704,5.2714,5.278,5.28,5.2817,0,0,0,0,0,5.1336,5.1487,5.1478,5.1518,5.1728,5.1887,5.1914,5.1946,5.1892,5.1967,5.2024,5.2006,5.2317,5.2242,5.2281,5.2376,5.2687,5.2701,5.2713,5.2772,5.2796,5.2817,0,0,0,0,0,0,5.1384,5.1502,5.1494,5.1685,5.1776,5.1882,5.1978,5.1971,5.2079,5.2069,5.2103,5.213,5.2303,5.2357,5.2271,5.2567,5.2495,5.2517,5.2526,5.255,5.2568,5.2551,5.2218,0,0,0,0,0,5.1416,5.1535,5.1632,5.1792,5.1837,5.19,5.197,5.1986,5.2082,5.212,5.219,5.2283,5.2401,5.2478,5.2593,5.2788,5.2811,5.2872,5.289,5.2905,5.2923,5.3028,5.3055,5.2764,5.2763,5.2763,0,0,5.1485,5.1564,5.1638,5.1803,5.1875,5.1997,5.1932,5.2065,5.2155,5.214,5.2306,5.236,5.2466,5.265,5.2734,5.27,5.3009,5.2922,5.2933,5.2944,5.3044,5.3072,5.3096,5.2773,5.2771,5.2769,0,0,5.1673,5.1746,5.1885,5.1959,5.2068,5.2108,5.2142,5.225,5.2284,5.2451,5.2442,5.255,5.2754,5.2829,5.2894,5.3107,5.3094,5.3143,5.324,5.3342,5.3365,5.3385,5.346,5.3486,5.3161,5.3161,5.3162,0,5.1745,5.1928,5.1958,5.2091,5.2163,5.2155,5.2296,5.2366,5.2507,5.2557,5.2517,5.277,5.2842,5.3041,5.3093,5.3147,5.3185,5.313,5.3359,5.338,5.34,5.3471,5.3499,5.3167,5.3166,5.3165,5.3165,0,5.201,5.2137,5.2237,5.2373,5.2456,5.2593,5.2643,5.2724,5.2732,5.2776,5.2944,5.3029,5.3159,5.3208,5.3218,5.3409,5.3384,5.3351,5.3279,5.3432,5.3499,5.3527,5.3174,5.3172,5.3171,5.3169,0,0,5.2236,5.2385,5.2421,5.2481,5.2601,5.2699,5.2834,5.2961,5.3028,5.3126,5.3239,5.341,5.338,5.3453,5.3472,5.3561,5.3722,5.3517,5.352,5.3551,5.3935,5.3957,5.3989,5.3714,5.3719,5.3724,5.3925,0,5.2434,5.2674,5.2703,5.2916,5.3032,5.3025,5.3142,5.3227,5.3271,5.3376,5.3425,5.3545,5.3497,5.3541,5.3629,5.3684,5.3799,5.367,5.3819,5.3823,5.3791,5.4024,5.405,5.4236,5.3952,5.3956,5.396,0,5.2698,5.2802,5.3025,5.3126,5.3176,5.3281,5.3398,5.3499,5.3594,5.362,5.3701,5.3707,5.3845,5.3767,5.3957,5.3868,5.3931,5.3966,5.3974,5.3989,5.39,5.4044,5.4296,5.4323,5.4002,5.3998,5.3995,0,5.2838,5.3034,5.3192,5.3244,5.3366,5.344,5.3494,5.3585,5.3658,5.376,5.3807,5.3924,5.3988,5.4078,5.4114,5.4055,5.4302,5.4227,5.4325,5.4324,5.4378,5.4374,5.4642,5.442,5.4419,5.4419,5.4418,0,5.3056,5.3193,5.3256,5.3353,5.3505,5.3538,5.3687,5.3738,5.3819,5.3925,5.3926,5.4025,5.4068,5.4174,5.4204,5.4355,5.4384,5.4408,5.4414,5.4407,5.4404,5.4448,5.4436,5.4426,5.4425,5.4423,5.4422,0,5.3239,5.3287,5.3458,5.3559,5.3588,5.3695,5.3781,5.3874,5.3916,5.405,5.4084,5.415,5.4274,5.432,5.4472,5.4491,5.4666,5.4662,5.4634,5.4635,5.473,5.4719,5.5035,5.5077,5.4828,5.4831,5.4833,0,5.3374,5.3479,5.359,5.3661,5.3718,5.3833,5.3907,5.3942,5.4019,5.4134,5.4213,5.4337,5.4437,5.4636,5.4697,5.4813,5.4811,5.4913,5.4828,5.4817,5.481,5.4803,5.4812,5.4929,5.4931,5.4933,5.4935,0,5.3609,5.3627,5.3734,5.3849,5.3937,5.403,5.4119,5.4177,5.4225,5.4311,5.4438,5.4516,5.467,5.4792,5.4909,5.4964,5.4958,5.4961,5.499,5.4984,5.4962,5.4973,5.4675,5.4954,5.4952,5.4951,5.495,5.4949,5.3772,5.3863,5.3955,5.4074,5.4144,5.4227,5.4319,5.4372,5.4478,5.4606,5.462,5.4756,5.4846,5.5003,5.5063,5.5169,5.5141,5.5183,5.5193,5.5203,5.5208,5.4946,5.5191,5.519,5.519,5.5189,5.5189,0,5.4005,5.4064,5.4172,5.4296,5.4389,5.4374,5.4472,5.455,5.4669,5.4754,5.4852,5.4997,5.5114,5.5183,5.5301,5.5372,5.5372,5.5401,5.5396,5.5408,5.5228,5.5191,5.54,5.5399,5.5399,5.5399,5.5399,5.5399,5.4138,5.4291,5.432,5.4507,5.4565,5.4697,5.4754,5.483,5.4897,5.5058,5.5155,5.52,5.5278,5.54,5.5507,5.5524,5.5566,5.5599,5.5613,5.5443,5.5421,5.5401,5.5366,5.5608,5.5608,5.5784,5.5786,5.5787]},{"header":{"parameterUnit":"m.s-1","parameterCategory":1,"la1":30.2991,"la2":30.254,"lo1":-89.0895,"lo2":-89.0444,"dy":0.0017,"dx":0.0017,"nx":28,"ny":28,"refTime":"2025-12-29T03:00:00:Z","depth":0,"parameterNumber":3,"parameterNumberName":"V-component_of_WINDS"},"data":[0,0,0,0,0,0,0,0,0,0,0,0,0,0,0,0,0,0,0,0,0,0,0,0,0,0,0,0,0,0,0,0,0,0,0,0,0,0,0,0,0,0,0,0,0,0,0,0,0,0,0,0,0,0,0,0,0,0,-6.3088,-6.3082,0,-6.2522,-6.2515,-6.2509,-6.2448,-6.2454,-6.2459,-6.2465,-6.1852,-6.1831,-6.181,0,0,0,0,0,0,0,0,0,0,0,0,0,-6.4086,-6.4068,-6.3089,-6.3082,-6.3075,-6.2523,-6.2515,-6.2507,-6.2447,-6.2454,-6.2461,-6.2468,-6.1859,-6.1834,-6.1808,0,0,0,0,0,0,0,0,0,0,0,0,0,-6.3599,-6.4062,-6.309,-6.2979,-6.2963,-6.2524,-6.2515,-6.2505,-6.2445,-6.2454,-6.2463,-6.2471,-6.1868,-6.1836,-6.1804,-6.1428,0,0,-6.1704,-6.169,0,0,0,0,0,0,0,0,-6.3627,-6.3562,-6.3002,-6.2985,-6.2967,-6.2565,-6.2642,-6.2143,-6.2443,-6.2641,-6.2465,-6.2475,-6.208,-6.2031,-6.1904,-6.1399,-6.1373,-6.1701,-6.1682,-6.1668,-6.1658,0,0,0,0,0,0,0,-6.366,-6.3586,-6.2863,-6.2994,-6.2972,-6.2946,-6.2887,-6.2547,-6.2317,-6.2624,-6.2619,-6.2554,-6.2072,-6.1936,-6.1889,-6.1364,-6.1702,-6.1673,-6.1653,-6.1641,-6.0512,-6.0503,0,0,0,0,0,0,-6.3719,-6.3615,-6.2881,-6.2846,-6.3326,-6.2922,-6.2855,-6.2685,-6.2321,-6.2275,-6.2547,-6.2553,-6.1987,-6.1927,-6.1867,-6.1396,-6.1668,-6.1637,-6.1619,-6.0523,-6.051,-6.0499,0,0,0,0,0,0,-6.3741,-6.3655,-6.2904,-6.3229,-6.3132,-6.2895,-6.2704,-6.2669,-6.2533,-6.2263,-6.2219,-6.2452,-6.1992,-6.1913,-6.1538,-6.1375,-6.1623,-6.1593,-6.0535,-6.0519,-6.0504,-6.0456,0,0,0,0,0,0,-6.377,-6.3663,-6.3525,-6.3227,-6.3115,-6.2593,-6.2695,-6.2652,-6.2481,-6.2483,-6.2162,-6.2117,-6.1993,-6.1587,-6.1506,-6.1334,-6.1568,-6.0548,-6.0528,-6.0509,-6.0471,-6.0441,-6.0415,0,0,0,0,0,-6.3806,-6.3528,-6.3518,-6.343,-6.2939,-6.2585,-6.2519,-6.2391,-6.2468,-6.2321,-6.2148,-6.2127,-6.1409,-6.1549,-6.1457,-6.1273,-6.0558,-6.0534,-6.0511,-6.0484,-6.0447,-6.0416,0,0,0,0,0,0,-6.3802,-6.3487,-6.3472,-6.3092,-6.2867,-6.2576,-6.2387,-6.2357,-6.2096,-6.2108,-6.1951,-6.1878,-6.1508,-6.1353,-6.1516,-6.0886,-6.0989,-6.0946,-6.1,-6.0963,-6.0935,-6.0975,-6.154,0,0,0,0,0,-6.376,-6.3508,-6.3243,-6.2932,-6.2821,-6.2624,-6.2465,-6.2387,-6.2142,-6.2043,-6.1842,-6.1596,-6.1314,-6.1131,-6.0857,-6.0452,-6.0374,-6.0279,-6.0251,-6.023,-6.0191,-5.9957,-5.9909,-6.0422,-6.0422,-6.0423,0,0,-6.3662,-6.346,-6.3309,-6.2926,-6.2742,-6.2475,-6.2543,-6.2258,-6.2055,-6.1996,-6.163,-6.1475,-6.1189,-6.0796,-6.0612,-6.0655,-6.0034,-6.02,-6.0185,-6.0157,-5.9928,-5.9879,-5.9836,-6.0406,-6.0409,-6.0412,0,0,-6.335,-6.3177,-6.2896,-6.2713,-6.2438,-6.2309,-6.2242,-6.1954,-6.1851,-6.1485,-6.1434,-6.1185,-6.0705,-6.0503,-6.0337,-5.995,-5.9916,-5.9864,-5.9713,-5.9487,-5.9447,-5.941,-5.9263,-5.9213,-5.9829,-5.9828,-5.9828,0,-6.3262,-6.2868,-6.2753,-6.247,-6.2298,-6.2246,-6.1953,-6.1777,-6.1422,-6.13,-6.1358,-6.0753,-6.0557,-6.0113,-6.0019,-5.9889,-5.9798,-5.9896,-5.9465,-5.9426,-5.9389,-5.9247,-5.9193,-5.9823,-5.9824,-5.9824,-5.9825,0,-6.2769,-6.2496,-6.2301,-6.197,-6.1777,-6.1491,-6.1322,-6.1139,-6.1079,-6.0941,-6.0563,-6.0329,-6.0004,-5.9894,-5.9828,-5.9436,-5.9472,-5.9499,-5.9597,-5.9338,-5.92,-5.9146,-5.9816,-5.9818,-5.9819,-5.9821,0,0,-6.243,-6.2045,-6.1974,-6.1821,-6.1515,-6.1295,-6.1004,-6.0697,-6.0538,-6.0296,-6.0039,-5.9636,-5.966,-5.9471,-5.9382,-5.9185,-5.8883,-5.9234,-5.9225,-5.917,-5.8427,-5.8402,-5.8342,-5.8864,-5.8854,-5.8845,-5.8448,0,-6.2077,-6.1567,-6.1454,-6.1009,-6.075,-6.0696,-6.044,-6.0219,-6.0082,-5.9834,-5.9679,-5.9393,-5.9451,-5.9336,-5.914,-5.8962,-5.873,-5.899,-5.8611,-5.8599,-5.8676,-5.8272,-5.8245,-5.7881,-5.8395,-5.8386,-5.8379,0,-6.1594,-6.135,-6.0883,-6.0609,-6.0495,-6.0269,-5.9976,-5.9744,-5.9488,-5.9401,-5.9194,-5.9126,-5.8808,-5.8931,-5.8486,-5.8665,-5.8504,-5.8393,-5.8376,-5.8327,-5.8467,-5.8203,-5.7763,-5.7705,-5.8295,-5.8302,-5.8308,0,-6.1384,-6.0938,-6.0599,-6.0471,-6.0145,-5.9986,-5.984,-5.9595,-5.9416,-5.9158,-5.9038,-5.8744,-5.8579,-5.8347,-5.8196,-5.8302,-5.7759,-5.7871,-5.7668,-5.7671,-5.7548,-5.7556,-5.7067,-5.7461,-5.7462,-5.7463,-5.7464,0,-6.0994,-6.0707,-6.0501,-6.0291,-5.9965,-5.9836,-5.9514,-5.9366,-5.9149,-5.8901,-5.8836,-5.8603,-5.8424,-5.8163,-5.8043,-5.7687,-5.7615,-5.7527,-5.7497,-5.7528,-5.7538,-5.7412,-5.743,-5.7448,-5.7451,-5.7454,-5.7457,0,-6.07,-6.0553,-6.0178,-5.9903,-5.9827,-5.9598,-5.9357,-5.9145,-5.9012,-5.8698,-5.8617,-5.84,-5.809,-5.7921,-5.7529,-5.7448,-5.7047,-5.7035,-5.7136,-5.7121,-5.6925,-5.6942,-5.633,-5.6238,-5.6703,-5.6699,-5.6695,0,-6.0457,-6.0237,-5.9941,-5.9776,-5.9631,-5.9365,-5.9185,-5.9048,-5.8861,-5.8554,-5.8377,-5.8067,-5.7809,-5.7314,-5.7114,-5.6812,-5.6785,-5.6592,-5.6738,-5.6775,-5.6771,-5.6782,-5.6755,-5.6563,-5.6559,-5.6555,-5.6553,0,-6.0038,-5.9977,-5.9726,-5.9448,-5.9238,-5.901,-5.8783,-5.8649,-5.8472,-5.8264,-5.7952,-5.7754,-5.7359,-5.7045,-5.6729,-5.6567,-5.6523,-5.6511,-5.6445,-5.6469,-5.6534,-5.6487,-5.7056,-5.6522,-5.6525,-5.6527,-5.6529,-5.653,-5.9754,-5.9555,-5.9316,-5.9036,-5.8854,-5.8644,-5.8432,-5.8275,-5.8016,-5.769,-5.7623,-5.729,-5.7034,-5.6607,-5.6437,-5.6167,-5.6202,-5.6111,-5.6086,-5.6063,-5.6051,-5.6587,-5.6109,-5.611,-5.611,-5.6111,-5.6111,0,-5.9324,-5.917,-5.8916,-5.8605,-5.8383,-5.838,-5.8128,-5.7939,-5.7651,-5.7422,-5.7174,-5.6811,-5.6508,-5.6288,-5.5976,-5.5802,-5.5774,-5.5723,-5.5729,-5.569,-5.6041,-5.6124,-5.5751,-5.5751,-5.5751,-5.5751,-5.5751,-5.5751,-5.9074,-5.8733,-5.8643,-5.8208,-5.8052,-5.7735,-5.759,-5.7392,-5.7209,-5.6811,-5.6563,-5.6427,-5.6196,-5.5869,-5.5587,-5.5529,-5.5412,-5.5362,-5.53,-5.5629,-5.5667,-5.5703,-5.578,-5.534,-5.534,-5.497,-5.4967,-5.4965]}]]